Weather History for Bentonville, AR

Change the Weather History Date:

Sunday, January 26, 2014

  Actual Average Record
Temperature  
Mean Temperature 48 °F -  
Max Temperature 66 °F 46 °F 71 °F (1953)
Min Temperature 30 °F 22 °F 6 °F (1978)
Degree Days  
Heating Degree Days 17    
Moisture  
Dew Point 28 °F    
Average Humidity 51    
Maximum Humidity 81    
Minimum Humidity 24    
Precipitation  
Precipitation 0.00 in - - ()
Sea Level Pressure  
Sea Level Pressure 29.78 in    
Wind  
Wind Speed 7 mph (WSW)    
Max Wind Speed 28 mph    
Max Gust Speed 43 mph    
Visibility 10 miles    
Events      
Averages and records for this station are not official NWS values.
T = Trace of Precipitation, MM = Missing Value Source: NWS Daily Summary

Daily Weather History Graph

Daily Weather History Graph

Search for Another Location

Airport:

Trip Planner

Search our weather history database for the weather conditions in past years. The results will help you decide how hot, cold, wet, or windy it might be!

Date:

Astronomy

Jan. 26, 2014 Rise Set
Actual Time 7:22 AM CST 5:36 PM CST
Civil Twilight 6:55 AM CST 6:04 PM CST
Nautical Twilight 6:23 AM CST 6:35 PM CST
Astronomical Twilight 5:53 AM CST 7:05 PM CST
Moon 3:00 AM CST (1/26) 1:27 PM CST (1/26)
Length of Visible Light 11h 09m
Length of Day
10h 14m
Waning Crescent, 23% of the Moon is Illuminated
Jan 26
Waning Crescent
Jan 30
New
Feb 6
First Quarter
Feb 14
Full
Feb 22
Last Quarter

Hourly Weather History & Observations

Time (CST) Temp. Windchill Dew Point Humidity Pressure Visibility Wind Dir Wind Speed Gust Speed Precip Events Conditions
12:15 AM 30.2 °F 26.7 °F 24.8 °F 80% 29.90 in 10.0 mi SSE 3.5 mph - N/A   Clear
12:35 AM 32.0 °F 27.5 °F 26.6 °F 80% 29.89 in 10.0 mi SSE 4.6 mph - N/A   Clear
12:55 AM 30.2 °F 23.4 °F 24.8 °F 80% 29.87 in 10.0 mi SSE 6.9 mph - N/A   Clear
1:15 AM 32.0 °F 25.6 °F 26.6 °F 80% 29.86 in 10.0 mi SE 6.9 mph - N/A   Clear
1:35 AM 33.8 °F 29.6 °F 28.4 °F 81% 29.85 in 10.0 mi South 4.6 mph - N/A   Clear
1:55 AM 33.8 °F 29.6 °F 26.6 °F 75% 29.85 in 10.0 mi SW 4.6 mph - N/A   Clear
2:15 AM 32.0 °F 26.4 °F 26.6 °F 80% 29.85 in 10.0 mi South 5.8 mph - N/A   Clear
2:35 AM 30.2 °F 24.3 °F 24.8 °F 80% 29.84 in 10.0 mi South 5.8 mph - N/A   Clear
2:55 AM 32.0 °F 25.6 °F 26.6 °F 80% 29.82 in 10.0 mi South 6.9 mph - N/A   Clear
3:15 AM 33.8 °F 28.6 °F 26.6 °F 75% 29.82 in 10.0 mi South 5.8 mph - N/A   Clear
3:35 AM 35.6 °F 30.7 °F 26.6 °F 70% 29.82 in 10.0 mi South 5.8 mph - N/A   Clear
3:55 AM 33.8 °F 30.8 °F 24.8 °F 70% 29.81 in 10.0 mi SSW 3.5 mph - N/A   Clear
4:15 AM 35.6 °F 29.9 °F 28.4 °F 75% 29.81 in 10.0 mi South 6.9 mph - N/A   Clear
4:35 AM 35.6 °F 30.7 °F 26.6 °F 70% 29.80 in 10.0 mi South 5.8 mph - N/A   Clear
4:55 AM 35.6 °F 31.7 °F 26.6 °F 70% 29.79 in 10.0 mi South 4.6 mph - N/A   Clear
5:15 AM 37.4 °F 31.4 °F 28.4 °F 70% 29.79 in 10.0 mi SSW 8.1 mph - N/A   Clear
5:35 AM 37.4 °F 33.8 °F 26.6 °F 65% 29.79 in 10.0 mi SSW 4.6 mph - N/A   Clear
5:55 AM 37.4 °F 32.8 °F 28.4 °F 70% 29.78 in 10.0 mi SSW 5.8 mph - N/A   Clear
6:15 AM 35.6 °F 30.7 °F 26.6 °F 70% 29.79 in 10.0 mi SW 5.8 mph - N/A   Clear
6:35 AM 35.6 °F 31.7 °F 26.6 °F 70% 29.79 in 10.0 mi SW 4.6 mph - N/A   Clear
6:55 AM 35.6 °F 32.8 °F 26.6 °F 70% 29.79 in 10.0 mi SW 3.5 mph - N/A   Clear
7:15 AM 35.6 °F 31.7 °F 26.6 °F 70% 29.79 in 10.0 mi SSW 4.6 mph - N/A   Clear
7:35 AM 37.4 °F 32.8 °F 28.4 °F 70% 29.78 in 10.0 mi SSW 5.8 mph - N/A   Clear
7:55 AM 35.6 °F 32.8 °F 26.6 °F 70% 29.78 in 10.0 mi SW 3.5 mph - N/A   Clear
8:15 AM 39.2 °F 35.9 °F 28.4 °F 65% 29.78 in 10.0 mi SW 4.6 mph - N/A   Clear
8:35 AM 42.8 °F 39.3 °F 30.2 °F 61% 29.78 in 10.0 mi SSW 5.8 mph - N/A   Clear
8:55 AM 44.6 °F 40.2 °F 30.2 °F 57% 29.78 in 10.0 mi SSW 8.1 mph - N/A   Clear
9:15 AM 46.4 °F 42.4 °F 32.0 °F 57% 29.78 in 10.0 mi SW 8.1 mph - N/A   Clear
9:35 AM 48.2 °F - 33.8 °F 58% 29.78 in 10.0 mi SW 8.1 mph - N/A   Clear
9:55 AM 51.8 °F - 32.0 °F 47% 29.78 in 10.0 mi SW 11.5 mph - N/A   Clear
10:15 AM 53.6 °F - 32.0 °F 44% 29.78 in 10.0 mi SW 10.4 mph 18.4 mph N/A   Clear
10:35 AM 55.4 °F - 32.0 °F 41% 29.78 in 10.0 mi WSW 11.5 mph - N/A   Clear
10:55 AM 57.2 °F - 32.0 °F 38% 29.77 in 10.0 mi SW 11.5 mph 18.4 mph N/A   Clear
11:15 AM 57.2 °F - 30.2 °F 36% 29.77 in 10.0 mi WSW 11.5 mph - N/A   Clear
11:35 AM 59.0 °F - 30.2 °F 34% 29.77 in 10.0 mi WSW 8.1 mph - N/A   Clear
11:55 AM 60.8 °F - 30.2 °F 31% 29.76 in 10.0 mi West 12.7 mph 20.7 mph N/A   Clear
12:15 PM 60.8 °F - 30.2 °F 31% 29.74 in 10.0 mi WSW 10.4 mph 16.1 mph N/A   Clear
12:35 PM 62.6 °F - 30.2 °F 30% 29.73 in 10.0 mi SW 11.5 mph - N/A   Clear
12:55 PM 62.6 °F - 30.2 °F 30% 29.71 in 10.0 mi West 13.8 mph - N/A   Clear
1:15 PM 62.6 °F - 30.2 °F 30% 29.70 in 10.0 mi WSW 11.5 mph - N/A   Clear
1:35 PM 64.4 °F - 30.2 °F 28% 29.69 in 10.0 mi WSW 12.7 mph 20.7 mph N/A   Clear
1:55 PM 64.4 °F - 30.2 °F 28% 29.68 in 10.0 mi WSW 10.4 mph 18.4 mph N/A   Clear
2:15 PM 64.4 °F - 30.2 °F 28% 29.67 in 10.0 mi West 13.8 mph 18.4 mph N/A   Clear
2:35 PM 64.4 °F - 30.2 °F 28% 29.67 in 10.0 mi WSW 10.4 mph 19.6 mph N/A   Clear
2:55 PM 66.2 °F - 28.4 °F 24% 29.66 in 10.0 mi West 12.7 mph 18.4 mph N/A   Clear
3:15 PM 66.2 °F - 28.4 °F 24% 29.66 in 10.0 mi WNW 9.2 mph 20.7 mph N/A   Clear
3:35 PM 64.4 °F - 30.2 °F 28% 29.66 in 10.0 mi WNW 12.7 mph - N/A   Clear
3:55 PM 62.6 °F - 30.2 °F 30% 29.67 in 10.0 mi NW 12.7 mph - N/A   Clear
4:15 PM 62.6 °F - 30.2 °F 30% 29.67 in 10.0 mi WNW 10.4 mph - N/A   Clear
4:35 PM 62.6 °F - 30.2 °F 30% 29.67 in 10.0 mi WNW 8.1 mph - N/A   Clear
4:55 PM 60.8 °F - 28.4 °F 29% 29.68 in 10.0 mi NW 9.2 mph - N/A   Clear
5:15 PM 59.0 °F - 28.4 °F 31% 29.68 in 10.0 mi NW 8.1 mph - N/A   Clear
5:35 PM 57.2 °F - 28.4 °F 33% 29.69 in 10.0 mi NNW 9.2 mph - N/A   Clear
5:55 PM 57.2 °F - 28.4 °F 33% 29.69 in 10.0 mi NNW 6.9 mph - N/A   Clear
6:15 PM 55.4 °F - 28.4 °F 36% 29.70 in 10.0 mi NW 4.6 mph - N/A   Clear
6:35 PM 53.6 °F - 26.6 °F 35% 29.71 in 10.0 mi NNW 4.6 mph - N/A   Clear
6:55 PM 51.8 °F - 28.4 °F 41% 29.72 in 10.0 mi NNW 4.6 mph - N/A   Clear
7:15 PM 50.0 °F - 28.4 °F 43% 29.73 in 10.0 mi NNW 5.8 mph - N/A   Clear
7:35 PM 48.2 °F - 28.4 °F 46% 29.74 in 10.0 mi NNW 4.6 mph - N/A   Clear
7:55 PM 46.4 °F - 26.6 °F 46% 29.75 in 10.0 mi Calm Calm - N/A   Clear
8:15 PM 44.6 °F 41.4 °F 26.6 °F 49% 29.78 in 10.0 mi NNW 5.8 mph - N/A   Clear
8:35 PM 48.2 °F - 28.4 °F 46% 29.79 in 10.0 mi NNW 6.9 mph - N/A   Clear
8:55 PM 48.2 °F - 28.4 °F 46% 29.80 in 10.0 mi North 6.9 mph - N/A   Clear
9:15 PM 46.4 °F 43.5 °F 26.6 °F 46% 29.81 in 10.0 mi North 5.8 mph - N/A   Clear
9:35 PM 46.4 °F 42.9 °F 26.6 °F 46% 29.82 in 10.0 mi North 6.9 mph - N/A   Clear
9:55 PM 44.6 °F 42.2 °F 26.6 °F 49% 29.83 in 10.0 mi North 4.6 mph - N/A   Clear
10:15 PM 44.6 °F - 26.6 °F 49% 29.84 in 10.0 mi Calm Calm - N/A   Clear
10:35 PM 42.8 °F 34.0 °F 24.8 °F 49% 29.88 in 10.0 mi North 20.7 mph 28.8 mph N/A   Clear
10:55 PM 41.0 °F 31.6 °F 24.8 °F 53% 29.92 in 10.0 mi North 20.7 mph 33.4 mph N/A   Clear
11:15 PM 39.2 °F 29.0 °F 23.0 °F 52% 29.94 in 10.0 mi North 21.9 mph 34.5 mph N/A   Clear
11:35 PM 37.4 °F 25.6 °F 19.4 °F 48% 29.98 in 10.0 mi North 26.5 mph 41.4 mph N/A   Clear
11:55 PM 35.6 °F 23.0 °F 12.2 °F 38% 30.00 in 10.0 mi North 27.6 mph 42.6 mph N/A   Clear